Weather in Nedryhailiv

Ukraine / Sumi District     50˚50′02″N   33˚52′51″E
temp.,
°C
wind,
m/s
gust,
m/s
humid.,
%
clouds,
%
prec.,
mm/h
press.,
hPa
HPBL,
m
28 november, sat
sat2823:00+2˚wsw3787100 0.0 1018300
02:00+2˚sw3688100 0.1 1018318
05:00+2˚ssw3496100 0.4 1018201
08:00+3˚s3497100 0.8 1019211
11:00+3˚ene2297100 2.3 1019110
14:00+3˚ese3494100 4.1 1018287
17:00+3˚se2488100 1.6 1018245
20:00+3˚sse2381100 2.0 1018107
29 november, sun
sun2923:00+3˚sse2281100 0.0 101865
02:00+3˚sse2382100 0.1 1019104
05:00+3˚s1292100 0.7 101957
08:00+3˚wsw0097100 2.2 102031
11:00+3˚n2398100 4.4 1020146
14:00+3˚ene1198100 8.3 102159
17:00+3˚s1298100 2.8 1022127
20:00+3˚se1296100 2.9 102359
30 november, mon
mon3023:00+4˚se3894100 0.1 1023357
02:00+4˚se4995100 1.3 1023392
05:00+5˚se61094100 1.4 1022409
08:00+4˚se61094100 4.8 1023447
11:00+4˚sse61192100 2.6 1023496
14:00+5˚sse61089100 3.7 1024516
17:00+5˚se51088100 1.0 1024536
20:00+5˚sse51086100 2.1 1025604
1 december, tue
tue123:00+4˚sse4981100 0.3 1025635
02:00+4˚sse4882100 0.5 1025513
05:00+3˚sse3785100 0.1 1026489
08:00+3˚se3684100 0.2 1027508
11:00+3˚se3478100 0.1 1027509
14:00+3˚ese3471100 0.1 1027611
17:00+1˚ese4593100 0.0 1027338
20:00+1˚e4693100 0.1 1028436
2 december, wed
wed223:00ese4690100 0.1 1028481
02:00ese4692100 0.1 1028401
05:00−1˚ese3693100 0.1 1028386
08:00−1˚ese4692100 0.3 1028368
11:00ese4585100 0.1 1028465
14:00ese3483100 0.1 1028519
17:00−1˚ese3592100 0.1 1028340
20:00−1˚ese369599 0.3 1029317